Location: Boiro
(42.6475°N, 8.8834°W)
Time: 12:17:54
(UTC+02:00)

deb Agena D - Pass Details

Date: 09 July 2022
Orbit: 997 x 1025 km, 100.1° (Epoch: 16 August)

Event Time Altitude Azimuth Distance (km) Brightness Sun altitude
Exits shadow 00:19:50 15° 103° (ESE) 2,450 ? -17.3°
Maximum altitude 00:23:32 25° 59° (ENE) 1,925 ? -17.7°
Drops below altitude 10° 00:28:33 10° 7° (N) 2,826 ? -18.2°
Sets 00:31:28 0° 355° (N) 3,780 ? -18.5°
